Snowfall_Accumulation
1.2 2.8 5.8 1.6 1.8 2.0 2.4 2.7 2.5 1.5 0.4 1.0 0.8 0.6 0.3 0.2 0.2 0.1 0.1 0.1 0.1 0.1 0.1 0.1 0.0 0.0 0.0 0.0 0.0 0.0 0.0 0.0 0.0 0.0 0.0 0.0 0.0 0.0 0.0 0.0 0.0 0.0 0.0 0.0
3.1 4.7 0.9 0.4 0.7 2.0 2.7 3.7 2.5 1.2 0.4 1.5 1.4 0.8 0.5 0.4 0.4 0.3 0.3 0.2 0.2 0.1 0.0 0.1 0.1 0.1 0.0 0.1 0.1 0.0 0.0 0.0 0.0 0.1 0.0 0.0 0.0 0.0 0.1 0.0 0.0 0.0 0.0 0.0
5.9 2.3 0.4 0.8 2.1 3.6 3.3 3.4 2.8 2.7 1.1 0.8 1.8 2.4 1.1 0.6 0.4 0.3 0.2 0.2 0.1 0.2 0.1 0.1 0.1 0.1 0.1 0.1 0.1 0.1 0.0 0.0 0.0 0.1 0.2 0.0 0.0 0.0 0.1 0.1 0.0 0.0 0.0 0.0
2.7 0.7 0.5 1.5 2.0 3.0 4.4 1.5 1.8 2.3 3.4 4.5 4.2 8.5 2.7 1.4 0.5 0.6 0.3 0.2 0.1 0.2 0.1 0.1 0.1 0.1 0.1 0.1 0.1 0.1 0.1 0.1 0.0 0.1 0.1 0.2 0.0 0.0 0.1 0.1 0.2 0.0 0.0 0.0
3.7 0.8 1.1 2.5 1.8 1.5 2.4 0.9 1.3 2.2 4.6 7.1 3.1 7.2 5.5 1.2 1.6 1.0 0.8 0.4 0.2 0.2 0.2 0.2 0.2 0.2 0.2 0.2 0.1 0.1 0.1 0.1 0.1 0.1 0.1 0.1 0.2 0.2 0.0 0.1 0.2 0.0 0.0 0.0
1.5 0.6 0.8 1.5 0.5 0.7 1.1 1.1 1.8 2.6 6.7 12.4 4.3 5.7 6.2 4.2 3.8 2.5 1.6 1.0 0.6 0.3 0.2 0.2 0.2 0.1 0.2 0.2 0.2 0.1 0.1 0.1 0.1 0.2 0.1 0.1 0.1 0.2 0.0 0.1 0.2 0.3 0.0 0.0
9.7 2.1 0.8 0.6 1.9 1.6 2.6 9.5 18.3 18.9 18.1 9.4 2.8 4.0 5.9 3.0 2.3 2.1 1.8 1.3 1.1 0.7 0.4 0.3 0.2 0.2 0.2 0.3 0.2 0.2 0.1 0.1 0.2 0.2 0.2 0.2 0.1 0.2 0.2 0.2 0.1 0.3 0.3 0.0
13.5 11.8 1.7 1.0 1.7 3.4 3.4 7.0 13.0 13.0 8.8 4.2 2.8 4.2 4.5 1.8 1.3 1.1 1.0 1.0 0.8 0.8 0.6 0.4 0.5 0.2 0.2 0.3 0.3 0.2 0.2 0.2 0.2 0.2 0.2 0.3 0.2 0.2 0.2 0.2 0.1 0.2 0.3 0.3
9.9 9.4 0.9 0.7 0.9 1.5 5.1 6.3 4.9 10.6 7.7 5.5 4.4 4.0 2.6 1.3 1.0 0.9 0.7 0.6 0.6 0.7 0.6 0.6 0.5 0.4 0.3 0.3 0.3 0.3 0.2 0.2 0.2 0.2 0.2 0.2 0.2 0.2 0.2 0.2 0.2 0.1 0.2 0.3
6.6 10.0 2.1 0.5 0.7 0.9 1.9 3.3 8.6 16.0 13.2 7.9 4.6 3.8 4.8 2.9 2.0 1.7 1.3 0.7 0.6 0.5 0.5 0.5 0.5 0.6 0.5 0.4 0.4 0.3 0.2 0.2 0.2 0.2 0.2 0.3 0.2 0.2 0.2 0.2 0.2 0.1 0.2 0.3
3.4 9.8 6.4 3.0 5.1 5.1 4.6 6.9 10.6 12.6 10.7 9.6 6.1 5.0 4.0 2.8 2.6 2.4 1.8 1.1 0.8 0.6 0.7 0.6 0.6 0.7 0.6 0.5 0.5 0.4 0.3 0.2 0.1 0.1 0.1 0.2 0.2 0.2 0.2 0.2 0.2 0.2 0.1 0.2
3.0 8.2 9.3 3.9 1.3 1.3 3.1 5.9 8.8 14.1 10.4 7.6 6.7 5.5 2.0 1.6 1.9 1.7 1.4 1.0 0.8 0.7 0.7 0.9 0.8 0.7 0.7 0.6 0.5 0.5 0.4 0.4 0.1 0.1 0.1 0.2 0.2 0.2 0.1 0.1 0.1 0.1 0.1 0.1
4.9 11.5 13.4 6.3 3.5 2.1 5.5 4.5 5.1 9.0 12.4 10.3 8.5 5.7 1.8 1.4 1.5 1.3 1.3 1.2 0.9 0.8 0.7 0.8 0.9 0.8 0.7 0.7 0.6 0.6 0.6 0.4 0.2 0.1 0.1 0.1 0.1 0.1 0.2 0.1 0.1 0.1 0.1 0.1
4.3 11.1 10.5 9.3 7.2 6.8 7.2 4.8 4.7 10.8 17.3 9.8 5.7 4.6 3.0 2.3 1.9 1.7 1.6 1.3 1.2 1.0 0.8 0.8 1.1 1.0 0.9 1.0 0.8 0.6 0.6 0.5 0.5 0.1 0.1 0.1 0.1 0.1 0.1 0.2 0.1 0.1 0.1 0.1
2.9 11.2 7.6 4.8 2.6 4.2 5.3 4.8 4.7 8.1 8.5 9.4 5.1 3.9 3.6 3.1 2.5 2.3 1.9 1.5 1.4 1.2 1.0 1.0 1.2 1.2 0.9 0.7 0.7 0.9 0.6 0.6 0.6 0.4 0.1 0.1 0.1 0.1 0.1 0.2 0.1 0.2 0.1 0.1
2.8 8.6 7.1 5.1 2.4 3.1 4.7 3.2 2.9 3.6 3.4 4.4 4.1 4.3 2.7 2.3 2.0 1.9 2.0 1.7 1.9 1.8 1.6 1.4 1.4 1.8 1.5 0.9 0.9 1.0 0.9 0.6 0.6 0.4 0.2 0.1 0.1 0.1 0.1 0.2 0.1 0.1 0.2 0.1
3.3 6.3 10.5 7.8 3.0 4.6 8.1 3.7 3.5 3.5 3.3 3.6 4.8 3.9 2.5 2.2 2.3 2.9 2.7 2.5 2.4 2.4 2.1 1.8 1.7 1.8 1.8 1.4 1.4 1.2 1.1 0.8 0.6 0.4 0.4 0.4 0.2 0.1 0.1 0.2 0.3 0.2 0.4 0.3
3.4 5.0 10.6 9.0 7.0 10.2 5.1 2.9 2.8 3.2 3.8 3.4 3.4 3.1 2.8 2.8 2.7 3.1 3.0 2.8 2.6 2.3 2.0 1.7 1.6 1.7 1.7 1.5 1.3 1.2 1.2 0.9 0.7 0.5 0.3 0.3 0.3 0.2 0.3 0.5 0.4 0.4 0.7 0.7
1.9 4.5 11.0 10.5 8.1 5.6 2.3 2.0 3.2 4.0 4.4 3.4 3.0 2.4 2.2 2.0 1.8 2.4 2.5 2.5 2.7 2.4 2.2 1.9 1.7 1.8 1.6 1.5 1.5 1.3 1.1 1.1 1.0 0.4 0.3 0.2 0.3 0.4 0.4 0.7 0.7 0.7 1.2 1.7
1.5 3.5 9.6 10.6 9.5 5.9 3.2 1.5 1.9 3.1 5.2 3.0 2.7 2.7 2.3 1.9 3.1 3.3 2.6 2.7 2.3 2.0 1.9 1.9 1.7 1.6 1.5 1.4 1.5 1.7 1.6 1.5 1.4 1.2 0.9 0.3 0.5 0.8 0.9 1.3 1.4 1.6 2.0 2.4
4.0 6.3 9.3 8.6 8.7 5.1 3.0 1.5 1.3 4.5 7.2 3.0 2.6 2.8 2.8 3.6 4.5 3.8 2.9 2.8 2.5 2.0 1.9 1.7 1.6 1.7 1.7 1.7 1.5 1.7 1.8 2.4 3.0 2.2 1.9 1.4 1.0 1.2 1.6 1.5 1.4 1.4 1.5 1.5
4.3 5.5 6.0 6.3 8.9 6.6 2.7 2.2 4.5 5.9 3.6 3.0 2.7 2.7 3.0 3.2 3.1 2.8 2.5 2.6 2.6 2.2 1.9 1.9 1.9 2.0 2.5 2.1 2.5 2.5 3.2 3.6 3.1 3.1 3.3 3.1 2.4 1.9 1.7 2.0 1.9 1.7 1.5 1.4
4.4 5.6 6.2 6.5 7.1 5.5 3.8 4.2 4.4 3.7 3.5 3.2 3.2 3.0 3.0 3.0 3.1 3.0 2.6 2.5 2.6 2.4 2.3 2.1 2.2 2.1 2.2 2.3 2.5 2.8 3.5 3.3 3.2 3.2 3.4 3.0 2.3 2.0 1.9 2.0 1.6 1.3 1.1 1.1
3.7 2.9 4.0 5.0 4.7 3.8 3.1 2.5 2.4 2.5 3.2 3.1 3.1 3.0 2.7 3.0 3.0 3.0 2.6 2.6 2.7 2.7 2.7 2.4 2.3 2.6 2.4 2.3 2.2 2.8 2.7 2.6 2.6 2.7 2.6 2.2 2.0 2.0 1.8 1.7 1.6 1.5 1.7 1.5
3.7 3.2 3.9 4.4 3.6 2.7 2.2 2.3 2.4 2.1 1.9 2.0 2.1 2.2 2.5 2.6 2.7 2.9 2.9 2.8 2.9 3.1 3.0 2.8 2.8 2.9 2.8 2.6 2.6 2.3 2.2 2.2 2.5 2.5 2.3 2.4 2.3 2.4 2.2 2.0 2.0 1.8 1.8 1.8
3.8 4.6 5.4 5.3 3.5 3.6 3.1 2.4 2.0 1.9 2.0 1.9 1.8 1.9 2.0 2.3 2.6 2.6 2.9 3.1 3.1 3.2 3.0 2.7 2.7 3.0 2.9 2.7 2.6 2.6 2.2 2.0 2.4 2.7 2.6 2.7 2.8 2.7 2.8 2.4 2.4 2.2 2.1 1.4